Schin op Geul, Netherlands
Current Conditions -  °F | °C
As of 1:55 AM on Sunday 26 Oct 2014 (Local Time) from EHBK Reporting Station
Haze Haze  
Wind Chill: 50°   Ceiling: 4200
Heat Index: 50°   Visibility: 3mi
Dew Point: 50°   Wind: 8mph
Humidity: 100%   Direction: 200°SSW
Pressure: 30.21"   Gusts: NA
Location:  50.85°N, 5.87°E
Report Text: EHBK 252355Z AUTO 20007KT 5000 BR OVC042 10/10 Q1023
Loading
Personal Weather Stations






























Interactive Weather Map
Tropical Storm Tracking
New forecast layout! Learn more

10-Day Weather Forecast

Advertisements
Track Severe Weather on mobile